Regional Weather Roundup
Issued by NWS Austin/San Antonio, TX

Home | Current Version | Previous Version | Text Only | Print | Product List | Glossary On
Versions: 1 2 3 4 5 6 7 8 9 10 11 12 13 14 15 16 17 18 19 20 21 22 23 24 25 26 27 28 29 30 31 32 33 34 35 36 37 38 39 40 41 42 43 44 45 46 47 48 49 50
000
ASUS44 KEWX 230802
RWREWX
SOUTH TEXAS REGIONAL WEATHER ROUNDUP
NATIONAL WEATHER SERVICE AUSTIN/SAN ANTONIO TX
300 AM CDT WED AUG 23 2017

NOTE: "FAIR" INDICATED FEW OR NO CLOUDS BELOW 12,000 FEET WITH NO
SIGNIFICANT WEATHER AND/OR OBSTRUCTIONS TO VISIBILITY.

* - THESE STATIONS ARE NOT NWS OR FAA STATIONS...AND ARE NOT SUBJECT
    TO NWS AND FAA QUALITY CONTROL.

TXZ171-172-183>190-230900-
TEXAS HILL COUNTRY AND EDWARDS PLATEAU

CITY           SKY/WX    TMP DP  RH WIND       PRES   REMARKS
JUNCTION       PTCLDY    79  65  62 CALM      30.05F
*LLANO         CLEAR     73  66  78 CALM      30.05S
BURNET         CLEAR     78  68  71 S5        30.04F
*HORSESHOE BAY CLEAR     77  68  72 CALM      30.02R
*KERRVILLE     CLEAR     76  71  82 S3        30.06S
*FREDERICKSBRG CLEAR     71  64  77 NW3       30.06S
*ROCKSPRINGS   NOT AVBL
*BOERNE STAGE  CLEAR     72  64  78 CALM      30.06S
*CASTROVILLE   CLEAR     77  66  67 CALM      30.03F
HONDO          CLEAR     76  68  76 E5        30.02S
*UVALDE        CLEAR     75  66  74 CALM      30.03S
DEL RIO        CLEAR     83  66  56 E6        29.99F
LAUGHLIN AFB   PTCLDY    80  66  62 E6        30.00F
CARRIZO SPRGS  CLEAR     81  68  65 SE6       29.97F
*EAGLE PASS    SUNNY     82  66  57 SE6       29.99S
$$

TXZ173-191>194-202-209-217>225-228-230900-
CENTRAL AND SOUTH CENTRAL TEXAS

CITY           SKY/WX    TMP DP  RH WIND       PRES   REMARKS
GEORGETOWN     CLEAR     81  70  69 S7        30.02F
AUSTIN/BERGSTM CLEAR     76  70  82 SW5       30.00F
AUSTIN/MABRY   CLEAR     81  70  69 CALM      30.02S
*AUSTIN/EXEC   CLEAR     75  70  83 CALM      30.01S
*LAGO VISTA    CLEAR     80  69  68 S6        30.03F
SAN MARCOS     CLEAR     77  71  82 SW6       30.02S
NEW BRAUNFELS  CLEAR     76  71  85 SW3       30.01S
RANDOLPH AFB   CLEAR     77  73  87 S3        30.02S
PT SAN ANTONIO CLEAR     76  70  82 S3        30.00S
SAN ANTONIO    CLEAR     78  70  76 S7        30.02F
STINSON FIELD  CLEAR     77  71  82 CALM      29.99F
*LA GRANGE     CLEAR     77  74  90 CALM      29.98F
*GIDDINGS      CLEAR     76  70  82 CALM      30.01F
*GONZALES      CLEAR     76  74  93 CALM      30.00S
$$

TXZ163>164-176>182-195>201-210>213-226-227-235-230900-
SOUTHEAST TEXAS

CITY           SKY/WX    TMP DP  RH WIND       PRES   REMARKS
COLLEGE STN    CLEAR     78  71  79 S5        29.99F
*BRYAN         CLEAR     77  70  77 S3        30.00F
*CALDWELL      NOT AVBL
*CROCKETT      CLEAR     73  72  94 CALM      30.02F
*BRENHAM       CLEAR     78  71  77 CALM      30.00F
HUNTSVILLE     CLEAR     79  70  74 S3        30.00F
CONROE         CLEAR     74  73  97 CALM      30.00F
HOUSTON BUSH   PTCLDY    78  74  87 CALM      29.99S
HOUSTON HOBBY  PTCLDY    80  73  79 CALM      29.98S
*HOUSTON SW AP PTCLDY    74  72  95 CALM      29.99S
PEARLAND       PTCLDY    79  73  82 CALM      29.99F
HOUSTON HOOKS  PTCLDY    76  73  91 CALM      29.99F
ELLINGTON FLD  PTCLDY    81  73  78 CALM      30.00S
SUGAR LAND     PTCLDY    76  74  93 CALM      29.98F
*HOUSTON EXEC  PTCLDY    75  72  88 CALM      30.00F
*CLEVELAND MUN PTCLDY    74  73  96 CALM      30.00S FOG
*WHARTON       CLEAR     72  69  90 CALM      29.99F
*COLUMBUS      FAIR      73  70  91 CALM      30.01S
*EAGLE LAKE    SUNNY     76  75  96 CALM      29.99S
$$

TXZ214>216-236>238-230900-
THE UPPER TEXAS COAST

CITY           SKY/WX    TMP DP  RH WIND       PRES   REMARKS
*ORANGE        CLOUDY    77  77 100 CALM      30.00S
PORT ARTHUR    CLOUDY    77  75  93 CALM      29.97F
GALVESTON      MOCLDY    83  77  82 S5        29.98F HX  92
ANGLETON       CLEAR     74  73  97 N3        29.98F
*BAY CITY      CLEAR     74  73  96 CALM      29.98S
PALACIOS       CLEAR     75  73  93 CALM      29.97F
$$

TXZ229>234-239>247-230900-
TEXAS COASTAL BEND AND RIO GRANDE PLAINS

CITY           SKY/WX    TMP DP  RH WIND       PRES   REMARKS
VICTORIA       CLEAR     73  71  93 W3        29.98F
*BEEVILLE      CLEAR    N/A N/A N/A CALM      29.99S
ROCKPORT       PTCLDY    81  75  82 S5        29.96F
*PORT ARANSAS  CLEAR     82  75  81 S5        29.97S
*PORT LAVACA   CLEAR     76  71  86 CALM      29.97F
*INGLESIDE     CLEAR     79  76  90 MISG      29.97S
CORPUS CHRISTI PTCLDY    75  74  96 CALM      29.97F
CORPUS NAS     PTCLDY    81  77  88 S5        29.96F
*ROBSTOWN      CLEAR     77  73  86 CALM      29.97F
ALICE          CLEAR     74  72  93 CALM      29.97F
KINGSVILLE NAS NOT AVBL
COTULLA        CLEAR     78  69  73 SE6       29.99S
*FAITH RANCH   CLEAR     82  68  61 SE7       29.98F
LAREDO         CLEAR     81  72  74 SE9       29.98F
$$

TXZ248>255-230900-
DEEP SOUTH TEXAS

CITY           SKY/WX    TMP DP  RH WIND       PRES   REMARKS
BROWNSVILLE    CLEAR     77  77 100 CALM      29.96F
PORT ISABEL    CLEAR     79  76  90 S3        29.95F
*SOUTH PADRE   NOT AVBL
HARLINGEN      CLEAR     76  74  93 NW5       29.95F
*HEBBRONVILLE  CLEAR     74  70  87 CALM      30.00F
MCALLEN        CLEAR     81  74  79 CALM      29.97F
*WESLACO       CLEAR     77  73  87 CALM      29.96F
FALFURRIAS     CLEAR     75  72  91 CALM      29.97F
EDINBURG       CLEAR     78  72  82 CALM      29.97F
*ZAPATA        CLEAR     80  70  71 CALM      29.97F
$$

TXZ213>215-236>238-242>244-246-247-251-254-255-230900-
CMAN STATIONS

STATION/POSITION TIME  TEMP    WIND        PRES    WAVE
                       AIR SEA DIR/SP/G            HT/PER
                 (UTC) (F)     (DEG/KT/KT) (MB)    (FT/S)
SABINE PASS      0730   83 90   30/  2/  3 1016.8
SEA RIM ST PARK  0700   84     170/  3/  4 1016.0
NORTH JETTY/GLS  0718      88  160/  5/  7 1014.9
EAGLE POINT      0724   82 89  290/  3/  3 1015.5
MORGANS POINT    0730   84 88  220/  2/  3 1015.3
MISSION/ARANSAS  0700          150/  8     1015.0
PORT O`CONNOR    0724   84     160/  7/  8 1014.4
PORT ARANSAS     0700   83 85  140/  6/  7 1014.9
MALAQUITE BEACH  0724   83 87  140/  5/  6 1014.1
BAFFIN BAY       0724   83 87              1015.0
PORT ISABEL      0724   83 85              1014.5
$$




USA.gov is the U.S. government's official web portal to all federal, state and local government web resources and services.